Voltar ao catálogo

STARLINK-2140

AtivoComunicaçõesVLEO
NORAD 47730·PAYLOAD·🇺🇸 United States

Lançado Mar 4, 2021 de Cape Canaveral Space Force Station

Loading…

Próximas Passagens (próximas 24 horas)

TLE

AtualizadoSource: CelesTrak SupGP

Época: Sep 15, 2026, 01:42 UTC

1 47730C 21017J   26258.07131944 -.00031426  00000+0 -10105-2 0  2588
2 47730  53.1587  55.6346 0001223  87.3250 199.3311 15.31718825    13

Acompanhe STARLINK-2140 em tempo real com AllMySat

Download on the App Store